Location: Palo Alto
(37.4420°N, 122.1420°W)
Time: 12:08:46
(UTC-07:00)

ISS - All Passes

Search period start: 27 March 2015 00:00
Search period end: 06 April 2015 00:00
Orbit: 396 x 406 km, 51.6° (Epoch: 27 March)

Date Brightness Start Highest point End Pass type
(mag) Time Alt. Az. Time Alt. Az. Time Alt. Az.
27 Mar - 00:14:27 10° SW 00:17:42 77° NW 00:20:57 10° NE night (unlit)
27 Mar - 01:52:51 10° NW 01:54:35 13° NNW 01:56:16 10° N night (unlit)
27 Mar - 05:08:49 10° N 05:09:53 11° NNE 05:10:59 10° NE visible
27 Mar - 06:43:45 10° NW 06:46:55 52° NE 06:50:04 10° ESE daylight
27 Mar - 08:21:25 10° W 08:23:02 13° SW 08:24:32 10° SSW daylight
27 Mar - 23:21:16 10° SSW 23:24:24 47° SE 23:27:33 10° ENE night (unlit)
28 Mar - 00:58:29 10° WNW 01:00:59 20° NNW 01:03:28 10° NNE night (unlit)
28 Mar - 05:50:37 10° NNW 05:53:28 28° NNE 05:56:19 10° E visible
28 Mar - 07:27:03 10° WNW 07:29:50 27° SW 07:32:35 10° SSE daylight
28 Mar - 22:28:35 10° S 22:31:09 22° SE 22:33:47 10° ENE night (unlit)
29 Mar - 00:04:28 10° W 00:07:28 33° NNW 00:10:26 10° NNE night (unlit)
29 Mar - 04:57:38 10° NNW 04:59:54 18° NNE 05:02:12 10° ENE visible
29 Mar - 06:33:22 10° WNW 06:36:34 59° SW 06:39:44 10° SE visible
29 Mar - 21:37:12 10° SE 21:37:56 11° SE 21:38:48 10° ESE night (unlit)
29 Mar - 23:10:45 10° WSW 23:13:59 65° NW 23:17:13 10° NE night (unlit)
30 Mar - 00:49:25 10° NW 00:50:56 12° NNW 00:52:23 10° N night (unlit)
30 Mar - 04:04:51 10° N 04:06:13 12° NNE 04:07:37 10° NE visible
30 Mar - 05:39:58 10° NW 05:43:11 62° NE 05:46:22 10° ESE visible
30 Mar - 07:18:16 10° WSW 07:19:14 11° SW 07:20:03 10° SW daylight
30 Mar - 22:17:23 10° SW 22:20:35 57° SE 22:23:47 10° ENE night (unlit)
30 Mar - 23:54:52 10° WNW 23:57:13 18° NNW 23:59:33 10° NNE night (unlit)
31 Mar - 04:46:44 10° NNW 04:49:40 31° NNE 04:52:37 10° E visible
31 Mar - 06:23:21 10° WNW 06:25:58 23° SW 06:28:33 10° S visible
31 Mar - 21:24:27 10° S 21:27:13 26° SE 21:30:01 10° ENE night (unlit)
31 Mar - 23:00:41 10° W 23:03:35 29° NNW 23:06:29 10° NNE night (unlit)
01 Apr - 03:53:37 10° NNW 03:56:02 19° NNE 03:58:29 10° ENE visible
01 Apr - 05:29:29 10° WNW 05:32:37 49° SW 05:35:44 10° SSE visible
01 Apr - 20:32:26 10° SSE 20:33:54 13° SE 20:35:29 10° E visible
01 Apr - 22:06:47 10° WSW 22:10:00 55° NW 22:13:12 10° NE visible
01 Apr - 23:45:45 10° NW 23:47:00 12° NNW 23:48:12 10° N night (unlit)
02 Apr - 03:00:40 10° N 03:02:16 13° NNE 03:03:56 10° NE night (unlit)
02 Apr - 04:35:56 10° NW 04:39:10 74° NE 04:42:23 10° SE visible
02 Apr - 21:13:14 10° SW 21:16:29 69° SE 21:19:44 10° NE visible
02 Apr - 22:50:59 10° WNW 22:53:11 17° NNW 22:55:22 10° NNE night (unlit)
03 Apr - 03:42:33 10° NW 03:45:36 36° NE 03:48:37 10° ESE night (unlit)
03 Apr - 05:19:24 10° W 05:21:50 19° SW 05:24:11 10° S visible
03 Apr - 20:20:07 10° SSW 20:23:01 30° SE 20:25:57 10° ENE visible
03 Apr - 21:56:37 10° W 21:59:26 26° NNW 22:02:14 10° NNE visible
04 Apr - 02:49:19 10° NNW 02:51:53 21° NNE 02:54:28 10° E night (unlit)
04 Apr - 04:25:20 10° WNW 04:28:24 41° SW 04:31:27 10° SSE night (unlit)
04 Apr - 19:27:43 10° SSE 19:29:36 15° SE 19:31:34 10° E daylight
04 Apr - 21:02:35 10° WSW 21:05:44 47° NW 21:08:54 10° NE visible
04 Apr - 22:41:52 10° NW 22:42:48 11° NNW 22:43:41 10° N visible
05 Apr - 01:56:14 10° NNW 01:58:03 14° NNE 01:59:55 10° ENE night (unlit)
05 Apr - 03:31:38 10° NW 03:34:53 87° NE 03:38:06 10° SE night (unlit)
05 Apr - 20:08:52 10° SW 20:12:07 81° SE 20:15:23 10° NE visible
05 Apr - 21:46:50 10° WNW 21:48:53 15° NNW 21:50:54 10° NNE visible
